| time (UTC) | temp F | wind direction | speed MPH | gust MPH | rain 1hr in | rain 24hr in | rain mn in | humidity % | barometer mb |
| 20260507230432 | 67 | 203 | 3.0 | 25.0 | 0.00 | 0.00 | 0.00 | 17 | 1350.3 |
| 20260507225932 | 65 | 197 | 3.0 | 23.0 | 0.00 | 0.00 | 0.00 | 18 | 1350.4 |
| 20260507225428 | 66 | 243 | 14.0 | 24.0 | 0.00 | 0.00 | 0.00 | 18 | 1350.2 |
| 20260507224925 | 65 | 286 | 11.0 | 23.0 | 0.00 | 0.00 | 0.00 | 17 | 1350.3 |
| 20260507224421 | 66 | 304 | 23.0 | 24.0 | 0.00 | 0.00 | 0.00 | 16 | 1350.2 |
| 20260507223918 | 66 | 264 | 15.0 | 20.0 | 0.00 | 0.00 | 0.00 | 17 | 1350.0 |
| 20260507223414 | 66 | 252 | 20.0 | 20.0 | 0.00 | 0.00 | 0.00 | 17 | 1350.4 |
| 20260507222911 | 67 | 225 | 3.0 | 21.0 | 0.00 | 0.00 | 0.00 | 15 | 1350.6 |
| 20260507222408 | 67 | 247 | 11.0 | 21.0 | 0.00 | 0.00 | 0.00 | 16 | 1350.3 |
| 20260507221905 | 66 | 240 | 6.0 | 15.0 | 0.00 | 0.00 | 0.00 | 12 | 1350.6 |
| 20260507221401 | 66 | 204 | 12.0 | 26.0 | 0.00 | 0.00 | 0.00 | 13 | 1350.4 |
| 20260507220857 | 66 | 291 | 7.0 | 23.0 | 0.00 | 0.00 | 0.00 | 14 | 1350.2 |
| 20260507220355 | 66 | 240 | 10.0 | 32.0 | 0.00 | 0.00 | 0.00 | 13 | 1350.4 |
| 20260507215852 | 67 | 245 | 19.0 | 23.0 | 0.00 | 0.00 | 0.00 | 12 | 1350.6 |
| 20260507215348 | 66 | 307 | 10.0 | 26.0 | 0.00 | 0.00 | 0.00 | 13 | 1350.4 |
| 20260507214845 | 65 | 252 | 15.0 | 25.0 | 0.00 | 0.00 | 0.00 | 12 | 1350.4 |
| 20260507214343 | 66 | 277 | 16.0 | 23.0 | 0.00 | 0.00 | 0.00 | 12 | 1350.7 |
| 20260507213838 | 66 | 264 | 6.0 | 27.0 | 0.00 | 0.00 | 0.00 | 11 | 1350.7 |
| 20260507213335 | 65 | 289 | 11.0 | 30.0 | 0.00 | 0.00 | 0.00 | 11 | 1350.8 |
| 20260507212832 | 65 | 280 | 5.0 | 23.0 | 0.00 | 0.00 | 0.00 | 11 | 1350.8 |
| 20260507212327 | 67 | 349 | 5.0 | 20.0 | 0.00 | 0.00 | 0.00 | 10 | 1350.9 |
| 20260507211824 | 66 | 298 | 17.0 | 20.0 | 0.00 | 0.00 | 0.00 | 10 | 1350.8 |
| 20260507211321 | 65 | 218 | 15.0 | 28.0 | 0.00 | 0.00 | 0.00 | 11 | 1350.9 |
| 20260507210818 | 66 | 233 | 6.0 | 30.0 | 0.00 | 0.00 | 0.00 | 10 | 1350.8 |
| 20260507210315 | 66 | 259 | 19.0 | 30.0 | 0.00 | 0.00 | 0.00 | 10 | 1350.9 |
| 20260507205811 | 66 | 234 | 10.0 | 26.0 | 0.00 | 0.00 | 0.00 | 10 | 1351.2 |
| 20260507205309 | 65 | 242 | 10.0 | 17.0 | 0.00 | 0.00 | 0.00 | 9 | 1350.9 |
| 20260507204804 | 64 | 304 | 17.0 | 37.0 | 0.00 | 0.00 | 0.00 | 10 | 1351.1 |
| 20260507204302 | 66 | 311 | 9.0 | 26.0 | 0.00 | 0.00 | 0.00 | 10 | 1351.3 |
| 20260507203800 | 65 | 299 | 9.0 | 28.0 | 0.00 | 0.00 | 0.00 | 10 | 1351.7 |
| 20260507203258 | 66 | 289 | 8.0 | 29.0 | 0.00 | 0.00 | 0.00 | 10 | 1351.6 |
| 20260507202753 | 64 | 235 | 15.0 | 19.0 | 0.00 | 0.00 | 0.00 | 9 | 1351.4 |
| 20260507202249 | 64 | 221 | 16.0 | 24.0 | 0.00 | 0.00 | 0.00 | 10 | 1351.3 |
| 20260507201744 | 64 | 240 | 7.0 | 26.0 | 0.00 | 0.00 | 0.00 | 9 | 1351.7 |
| 20260507201241 | 65 | 249 | 16.0 | 16.0 | 0.00 | 0.00 | 0.00 | 9 | 1351.6 |
| 20260507200738 | 64 | 216 | 20.0 | 30.0 | 0.00 | 0.00 | 0.00 | 10 | 1351.8 |
| 20260507200233 | 64 | 231 | 9.0 | 26.0 | 0.00 | 0.00 | 0.00 | 10 | 1351.7 |
| 20260507195730 | 65 | 222 | 12.0 | 28.0 | 0.00 | 0.00 | 0.00 | 11 | 1351.4 |
| 20260507195227 | 64 | 226 | 11.0 | 22.0 | 0.00 | 0.00 | 0.00 | 10 | 1351.6 |
| 20260507194725 | 63 | 254 | 9.0 | 26.0 | 0.00 | 0.00 | 0.00 | 9 | 1351.9 |
| 20260507194220 | 64 | 238 | 11.0 | 20.0 | 0.00 | 0.00 | 0.00 | 11 | 1351.7 |
| 20260507193717 | 65 | 222 | 10.0 | 35.0 | 0.00 | 0.00 | 0.00 | 10 | 1351.8 |
| 20260507193214 | 64 | 257 | 9.0 | 26.0 | 0.00 | 0.00 | 0.00 | 10 | 1351.7 |
| 20260507192710 | 66 | 232 | 5.0 | 21.0 | 0.00 | 0.00 | 0.00 | 11 | 1351.8 |
| 20260507192207 | 66 | 253 | 14.0 | 23.0 | 0.00 | 0.00 | 0.00 | 11 | 1352.1 |
| 20260507191703 | 64 | 289 | 6.0 | 30.0 | 0.00 | 0.00 | 0.00 | 10 | 1351.8 |
| 20260507191201 | 64 | 304 | 14.0 | 24.0 | 0.00 | 0.00 | 0.00 | 12 | 1352.2 |
| 20260507190657 | 65 | 242 | 5.0 | 19.0 | 0.00 | 0.00 | 0.00 | 11 | 1351.7 |
| 20260507190156 | 65 | 242 | 6.0 | 23.0 | 0.00 | 0.00 | 0.00 | 11 | 1351.8 |
| 20260507185654 | 64 | 299 | 11.0 | 24.0 | 0.00 | 0.00 | 0.00 | 13 | 1352.1 |
| 20260507185150 | 65 | 296 | 7.0 | 21.0 | 0.00 | 0.00 | 0.00 | 12 | 1352.2 |
| 20260507184648 | 63 | 197 | 18.0 | 34.0 | 0.00 | 0.00 | 0.00 | 12 | 1352.2 |
| 20260507184146 | 64 | 201 | 8.0 | 25.0 | 0.00 | 0.00 | 0.00 | 12 | 1352.3 |
| 20260507183642 | 64 | 228 | 16.0 | 25.0 | 0.00 | 0.00 | 0.00 | 13 | 1352.2 |
| 20260507183139 | 64 | 287 | 17.0 | 21.0 | 0.00 | 0.00 | 0.00 | 14 | 1352.2 |
| 20260507182636 | 62 | 271 | 9.0 | 26.0 | 0.00 | 0.00 | 0.00 | 12 | 1352.3 |
| 20260507182132 | 64 | 303 | 14.0 | 19.0 | 0.00 | 0.00 | 0.00 | 11 | 1352.6 |
| 20260507181628 | 64 | 215 | 17.0 | 21.0 | 0.00 | 0.00 | 0.00 | 11 | 1352.4 |
| 20260507181124 | 65 | 243 | 9.0 | 24.0 | 0.00 | 0.00 | 0.00 | 13 | 1352.4 |
| 20260507180621 | 63 | 258 | 5.0 | 17.0 | 0.00 | 0.00 | 0.00 | 13 | 1352.3 |
| 20260507180118 | 63 | 235 | 14.0 | 23.0 | 0.00 | 0.00 | 0.00 | 13 | 1352.7 |
| 20260507175614 | 61 | 217 | 18.0 | 23.0 | 0.00 | 0.00 | 0.00 | 16 | 1352.9 |
| 20260507175111 | 62 | 220 | 6.0 | 22.0 | 0.00 | 0.00 | 0.00 | 16 | 1352.9 |
| 20260507174609 | 59 | 169 | 5.0 | 20.0 | 0.00 | 0.00 | 0.00 | 22 | 1353.1 |
| 20260507174106 | 60 | 90 | 0.0 | 15.0 | 0.00 | 0.00 | 0.00 | 24 | 1352.9 |
| 20260507173603 | 59 | 111 | 4.0 | 9.0 | 0.00 | 0.00 | 0.00 | 26 | 1353.3 |
| 20260507173100 | 58 | 178 | 6.0 | 17.0 | 0.00 | 0.00 | 0.00 | 27 | 1353.2 |
| 20260507172556 | 57 | 221 | 5.0 | 17.0 | 0.00 | 0.00 | 0.00 | 29 | 1353.2 |
| 20260507172053 | 56 | 199 | 7.0 | 17.0 | 0.00 | 0.00 | 0.00 | 29 | 1353.3 |
| 20260507171548 | 55 | 214 | 14.0 | 19.0 | 0.00 | 0.00 | 0.00 | 31 | 1353.8 |
| 20260507171046 | 55 | 267 | 9.0 | 13.0 | 0.00 | 0.00 | 0.00 | 31 | 1353.6 |
| 20260507170543 | 55 | 259 | 3.0 | 11.0 | 0.00 | 0.00 | 0.00 | 31 | 1353.3 |
| 20260507170040 | 55 | 250 | 0.0 | 11.0 | 0.00 | 0.00 | 0.00 | 32 | 1353.6 |
| 20260507165535 | 55 | 241 | 4.0 | 20.0 | 0.00 | 0.00 | 0.00 | 32 | 1353.6 |
| 20260507165032 | 56 | 234 | 13.0 | 16.0 | 0.00 | 0.00 | 0.00 | 30 | 1353.7 |
| 20260507164528 | 54 | 213 | 5.0 | 11.0 | 0.00 | 0.00 | 0.00 | 33 | 1353.8 |
| 20260507164025 | 52 | 209 | 6.0 | 17.0 | 0.00 | 0.00 | 0.00 | 35 | 1353.8 |
| 20260507163522 | 53 | 205 | 6.0 | 14.0 | 0.00 | 0.00 | 0.00 | 35 | 1354.1 |
| 20260507163021 | 53 | 224 | 8.0 | 18.0 | 0.00 | 0.00 | 0.00 | 35 | 1353.8 |
| 20260507162515 | 52 | 221 | 10.0 | 17.0 | 0.00 | 0.00 | 0.00 | 38 | 1353.9 |
| 20260507162012 | 51 | 292 | 8.0 | 17.0 | 0.00 | 0.00 | 0.00 | 38 | 1353.9 |
| 20260507161508 | 51 | 259 | 9.0 | 16.0 | 0.00 | 0.00 | 0.00 | 40 | 1354.2 |
| 20260507161005 | 50 | 215 | 7.0 | 13.0 | 0.00 | 0.00 | 0.00 | 43 | 1353.9 |
| 20260507160501 | 50 | 231 | 9.0 | 16.0 | 0.00 | 0.00 | 0.00 | 41 | 1353.8 |
| 20260507155956 | 49 | 197 | 7.0 | 15.0 | 0.00 | 0.00 | 0.00 | 45 | 1354.1 |
| 20260507155453 | 49 | 218 | 11.0 | 18.0 | 0.00 | 0.00 | 0.00 | 46 | 1353.9 |
| 20260507154950 | 48 | 222 | 5.0 | 10.0 | 0.00 | 0.00 | 0.00 | 48 | 1354.1 |
| 20260507154447 | 48 | 204 | 9.0 | 14.0 | 0.00 | 0.00 | 0.00 | 49 | 1354.1 |
| 20260507153944 | 47 | 203 | 9.0 | 9.0 | 0.00 | 0.00 | 0.00 | 50 | 1354.3 |
| 20260507153441 | 47 | 210 | 13.0 | 13.0 | 0.00 | 0.00 | 0.00 | 50 | 1354.2 |
| 20260507152937 | 47 | 154 | 4.0 | 14.0 | 0.00 | 0.00 | 0.00 | 50 | 1354.2 |
| 20260507152433 | 46 | 187 | 3.0 | 11.0 | 0.00 | 0.00 | 0.00 | 51 | 1354.1 |
| 20260507151929 | 46 | 200 | 4.0 | 8.0 | 0.00 | 0.00 | 0.00 | 52 | 1354.2 |
| 20260507151426 | 46 | 203 | 6.0 | 6.0 | 0.00 | 0.00 | 0.00 | 53 | 1354.4 |
| 20260507150923 | 46 | 185 | 5.0 | 9.0 | 0.00 | 0.00 | 0.00 | 53 | 1354.1 |
| 20260507150420 | 46 | 139 | 2.0 | 11.0 | 0.00 | 0.00 | 0.00 | 55 | 1354.4 |
| 20260507145916 | 45 | 225 | 2.0 | 7.0 | 0.00 | 0.00 | 0.00 | 56 | 1354.3 |
| 20260507145412 | 44 | 211 | 6.0 | 13.0 | 0.00 | 0.00 | 0.00 | 56 | 1354.6 |
| 20260507144909 | 45 | 117 | 1.0 | 6.0 | 0.00 | 0.00 | 0.00 | 57 | 1354.3 |
| 20260507144406 | 44 | 209 | 4.0 | 7.0 | 0.00 | 0.00 | 0.00 | 58 | 1354.3 |
| 20260507143903 | 44 | 166 | 9.0 | 11.0 | 0.00 | 0.00 | 0.00 | 58 | 1354.3 |
| 20260507143400 | 43 | 225 | 6.0 | 8.0 | 0.00 | 0.00 | 0.00 | 62 | 1354.6 |
| 20260507142857 | 42 | 207 | 6.0 | 10.0 | 0.00 | 0.00 | 0.00 | 64 | 1354.3 |
| 20260507142353 | 44 | 165 | 0.0 | 3.0 | 0.00 | 0.00 | 0.00 | 61 | 1354.4 |
| 20260507141850 | 45 | 131 | 0.0 | 3.0 | 0.00 | 0.00 | 0.00 | 62 | 1354.2 |
| 20260507141346 | 41 | 93 | 3.0 | 5.0 | 0.00 | 0.00 | 0.00 | 69 | 1354.4 |
| 20260507140843 | 43 | 108 | 2.0 | 4.0 | 0.00 | 0.00 | 0.00 | 67 | 1354.4 |
| 20260507140340 | 39 | 186 | 1.0 | 5.0 | 0.00 | 0.00 | 0.00 | 73 | 1354.4 |
| 20260507135838 | 41 | 150 | 2.0 | 3.0 | 0.00 | 0.00 | 0.00 | 71 | 1354.6 |
| 20260507135334 | 40 | 121 | 2.0 | 3.0 | 0.00 | 0.00 | 0.00 | 73 | 1354.7 |
| 20260507134832 | 39 | 110 | 2.0 | 3.0 | 0.00 | 0.00 | 0.00 | 74 | 1354.7 |
| 20260507134327 | 39 | 84 | 2.0 | 5.0 | 0.00 | 0.00 | 0.00 | 75 | 1354.4 |
| 20260507133824 | 40 | 95 | 2.0 | 3.0 | 0.00 | 0.00 | 0.00 | 72 | 1354.2 |
| 20260507133319 | 37 | 38 | 2.0 | 4.0 | 0.00 | 0.00 | 0.00 | 80 | 1354.6 |
| 20260507132818 | 35 | 101 | 3.0 | 4.0 | 0.00 | 0.00 | 0.00 | 83 | 1354.4 |
| 20260507132314 | 33 | 64 | 4.0 | 4.0 | 0.00 | 0.00 | 0.00 | 89 | 1354.3 |
| 20260507131811 | 30 | 90 | 0.0 | 3.0 | 0.00 | 0.00 | 0.00 | 93 | 1354.4 |
| 20260507131308 | 30 | 106 | 3.0 | 3.0 | 0.00 | 0.00 | 0.00 | 93 | 1354.7 |
| 20260507130804 | 30 | 71 | 0.0 | 4.0 | 0.00 | 0.00 | 0.00 | 93 | 1354.4 |
| 20260507130302 | 30 | 90 | 2.0 | 3.0 | 0.00 | 0.00 | 0.00 | 94 | 1354.6 |
| 20260507125801 | 30 | 102 | 1.0 | 3.0 | 0.00 | 0.00 | 0.00 | 94 | 1354.4 |
| 20260507125258 | 30 | 108 | 2.0 | 3.0 | 0.00 | 0.00 | 0.00 | 94 | 1354.7 |
| 20260507124755 | 30 | 100 | 3.0 | 3.0 | 0.00 | 0.00 | 0.00 | 94 | 1354.7 |
| 20260507124251 | 30 | 108 | 2.0 | 3.0 | 0.00 | 0.00 | 0.00 | 94 | 1354.4 |
| 20260507123750 | 30 | 72 | 3.0 | 5.0 | 0.00 | 0.00 | 0.00 | 94 | 1354.4 |
| 20260507123247 | 29 | 73 | 1.0 | 3.0 | 0.00 | 0.00 | 0.00 | 94 | 1354.6 |
| 20260507122742 | 29 | 79 | 3.0 | 3.0 | 0.00 | 0.00 | 0.00 | 94 | 1354.4 |
| 20260507122238 | 30 | 106 | 2.0 | 3.0 | 0.00 | 0.00 | 0.00 | 94 | 1354.4 |
| 20260507121734 | 30 | 63 | 3.0 | 4.0 | 0.00 | 0.00 | 0.00 | 95 | 1354.6 |
| 20260507121230 | 29 | 90 | 3.0 | 4.0 | 0.00 | 0.00 | 0.00 | 95 | 1354.8 |
| 20260507120726 | 29 | 94 | 2.0 | 3.0 | 0.00 | 0.00 | 0.00 | 95 | 1354.8 |
| 20260507120224 | 29 | 99 | 2.0 | 4.0 | 0.00 | 0.00 | 0.00 | 95 | 1354.7 |
| 20260507115719 | 29 | 95 | 2.0 | 3.0 | 0.00 | 0.00 | 0.00 | 95 | 1354.8 |
| 20260507115216 | 29 | 87 | 3.0 | 3.0 | 0.00 | 0.00 | 0.00 | 94 | 1354.7 |
| 20260507114711 | 28 | 87 | 3.0 | 3.0 | 0.00 | 0.00 | 0.00 | 94 | 1354.8 |
| 20260507114209 | 29 | 90 | 1.0 | 4.0 | 0.00 | 0.00 | 0.00 | 94 | 1354.7 |
| 20260507113706 | 28 | 90 | 1.0 | 3.0 | 0.00 | 0.00 | 0.00 | 94 | 1354.6 |
| 20260507113203 | 28 | 82 | 3.0 | 4.0 | 0.00 | 0.00 | 0.00 | 94 | 1354.4 |
| 20260507112701 | 29 | 101 | 3.0 | 4.0 | 0.00 | 0.00 | 0.00 | 94 | 1354.6 |
| 20260507112157 | 28 | 111 | 1.0 | 3.0 | 0.00 | 0.00 | 0.00 | 94 | 1354.7 |
| 20260507111655 | 29 | 78 | 2.0 | 4.0 | 0.00 | 0.00 | 0.00 | 94 | 1354.8 |
| 20260507111152 | 29 | 85 | 3.0 | 4.0 | 0.00 | 0.00 | 0.00 | 94 | 1354.4 |
| 20260507110647 | 29 | 75 | 3.0 | 5.0 | 0.00 | 0.00 | 0.00 | 94 | 1354.6 |
| 20260507110144 | 29 | 79 | 4.0 | 5.0 | 0.00 | 0.00 | 0.00 | 94 | 1354.7 |
| 20260507105641 | 28 | 74 | 3.0 | 5.0 | 0.00 | 0.00 | 0.00 | 94 | 1354.6 |
| 20260507105137 | 27 | 77 | 3.0 | 4.0 | 0.00 | 0.00 | 0.00 | 94 | 1354.7 |
| 20260507104634 | 27 | 78 | 2.0 | 4.0 | 0.00 | 0.00 | 0.00 | 94 | 1354.7 |
| 20260507104131 | 27 | 75 | 2.0 | 3.0 | 0.00 | 0.00 | 0.00 | 94 | 1354.9 |
| 20260507103627 | 28 | 63 | 2.0 | 2.0 | 0.00 | 0.00 | 0.00 | 93 | 1354.7 |
| 20260507103124 | 28 | 90 | 3.0 | 3.0 | 0.00 | 0.00 | 0.00 | 94 | 1354.7 |
| 20260507102620 | 29 | 90 | 2.0 | 3.0 | 0.00 | 0.00 | 0.00 | 94 | 1354.7 |
| 20260507102116 | 28 | 140 | 0.0 | 3.0 | 0.00 | 0.00 | 0.00 | 93 | 1354.7 |
| 20260507101613 | 28 | 85 | 2.0 | 3.0 | 0.00 | 0.00 | 0.00 | 93 | 1354.6 |
| 20260507101109 | 28 | 94 | 2.0 | 4.0 | 0.00 | 0.00 | 0.00 | 93 | 1354.4 |
| 20260507100606 | 28 | 77 | 3.0 | 3.0 | 0.00 | 0.00 | 0.00 | 93 | 1354.8 |
| 20260507100104 | 28 | 90 | 3.0 | 3.0 | 0.00 | 0.00 | 0.00 | 93 | 1354.9 |
| 20260507095602 | 28 | 117 | 2.0 | 3.0 | 0.00 | 0.00 | 0.00 | 92 | 1354.8 |
| 20260507095058 | 29 | 61 | 2.0 | 3.0 | 0.00 | 0.00 | 0.00 | 92 | 1354.7 |
| 20260507094554 | 29 | 84 | 1.0 | 3.0 | 0.00 | 0.00 | 0.00 | 92 | 1354.7 |
| 20260507094051 | 29 | 69 | 4.0 | 5.0 | 0.00 | 0.00 | 0.00 | 92 | 1354.6 |
| 20260507093549 | 28 | 60 | 3.0 | 4.0 | 0.00 | 0.00 | 0.00 | 92 | 1354.6 |
| 20260507093047 | 28 | 65 | 3.0 | 3.0 | 0.00 | 0.00 | 0.00 | 92 | 1354.7 |
| 20260507092543 | 27 | 49 | 3.0 | 3.0 | 0.00 | 0.00 | 0.00 | 91 | 1355.1 |
| 20260507092040 | 28 | 66 | 2.0 | 4.0 | 0.00 | 0.00 | 0.00 | 91 | 1354.9 |
| 20260507091537 | 28 | 33 | 3.0 | 4.0 | 0.00 | 0.00 | 0.00 | 90 | 1354.8 |
| 20260507091033 | 29 | 75 | 5.0 | 5.0 | 0.00 | 0.00 | 0.00 | 90 | 1354.9 |
| 20260507090529 | 30 | 46 | 4.0 | 5.0 | 0.00 | 0.00 | 0.00 | 90 | 1354.8 |
| 20260507090026 | 30 | 42 | 3.0 | 5.0 | 0.00 | 0.00 | 0.00 | 90 | 1354.8 |
| 20260507085523 | 30 | 48 | 2.0 | 6.0 | 0.00 | 0.00 | 0.00 | 90 | 1354.7 |
| 20260507085020 | 30 | 12 | 4.0 | 8.0 | 0.00 | 0.00 | 0.00 | 88 | 1354.7 |
| 20260507084516 | 32 | 12 | 0.0 | 4.0 | 0.00 | 0.00 | 0.00 | 86 | 1354.8 |
| 20260507084014 | 33 | 79 | 3.0 | 7.0 | 0.00 | 0.00 | 0.00 | 86 | 1354.6 |
| 20260507083509 | 33 | 105 | 4.0 | 9.0 | 0.00 | 0.00 | 0.00 | 86 | 1354.8 |
| 20260507083007 | 33 | 96 | 5.0 | 10.0 | 0.00 | 0.00 | 0.00 | 86 | 1354.7 |
| 20260507082503 | 34 | 106 | 4.0 | 6.0 | 0.00 | 0.00 | 0.00 | 86 | 1354.8 |
| 20260507081959 | 34 | 53 | 9.0 | 10.0 | 0.00 | 0.00 | 0.00 | 86 | 1354.9 |
| 20260507081455 | 34 | 68 | 9.0 | 9.0 | 0.00 | 0.00 | 0.00 | 86 | 1354.8 |
| 20260507080952 | 34 | 114 | 13.0 | 13.0 | 0.00 | 0.00 | 0.00 | 86 | 1354.4 |
| 20260507080448 | 34 | 83 | 9.0 | 12.0 | 0.00 | 0.00 | 0.00 | 86 | 1354.4 |
| 20260507075944 | 35 | 94 | 6.0 | 13.0 | 0.00 | 0.00 | 0.00 | 85 | 1355.1 |
| 20260507075440 | 34 | 123 | 7.0 | 14.0 | 0.00 | 0.00 | 0.00 | 86 | 1354.6 |
| 20260507074937 | 35 | 80 | 6.0 | 14.0 | 0.00 | 0.00 | 0.00 | 85 | 1354.4 |
| 20260507074434 | 35 | 113 | 4.0 | 13.0 | 0.00 | 0.00 | 0.00 | 85 | 1354.4 |
| 20260507073932 | 35 | 84 | 5.0 | 12.0 | 0.00 | 0.00 | 0.00 | 85 | 1354.3 |
| 20260507073428 | 35 | 59 | 6.0 | 11.0 | 0.00 | 0.00 | 0.00 | 85 | 1354.6 |
| 20260507072925 | 35 | 68 | 4.0 | 13.0 | 0.00 | 0.00 | 0.00 | 85 | 1354.3 |
| 20260507072422 | 35 | 81 | 5.0 | 11.0 | 0.00 | 0.00 | 0.00 | 85 | 1354.4 |
| 20260507071920 | 35 | 71 | 6.0 | 12.0 | 0.00 | 0.00 | 0.00 | 84 | 1354.2 |
| 20260507071417 | 35 | 109 | 7.0 | 13.0 | 0.00 | 0.00 | 0.00 | 84 | 1354.6 |
| 20260507070913 | 35 | 157 | 3.0 | 11.0 | 0.00 | 0.00 | 0.00 | 85 | 1354.4 |
| 20260507070410 | 35 | 80 | 4.0 | 12.0 | 0.00 | 0.00 | 0.00 | 84 | 1354.3 |
| 20260507065907 | 35 | 86 | 4.0 | 12.0 | 0.00 | 0.00 | 0.00 | 84 | 1354.6 |
| 20260507065404 | 35 | 127 | 8.0 | 13.0 | 0.00 | 0.00 | 0.00 | 85 | 1354.6 |
| 20260507064901 | 35 | 124 | 6.0 | 12.0 | 0.00 | 0.00 | 0.00 | 84 | 1354.4 |
| 20260507064359 | 35 | 127 | 8.0 | 15.0 | 0.00 | 0.00 | 0.00 | 84 | 1354.4 |
| 20260507063857 | 35 | 119 | 6.0 | 16.0 | 0.00 | 0.00 | 0.00 | 84 | 1354.4 |
| 20260507063354 | 35 | 110 | 6.0 | 16.0 | 0.00 | 0.00 | 0.00 | 84 | 1354.3 |
| 20260507062850 | 35 | 90 | 3.0 | 13.0 | 0.00 | 0.00 | 0.00 | 84 | 1354.1 |
| 20260507062347 | 35 | 111 | 12.0 | 13.0 | 0.00 | 0.00 | 0.00 | 84 | 1354.1 |
| 20260507061845 | 35 | 76 | 5.0 | 13.0 | 0.00 | 0.00 | 0.00 | 84 | 1354.3 |
| 20260507061343 | 35 | 114 | 14.0 | 14.0 | 0.00 | 0.00 | 0.00 | 84 | 1353.8 |
| 20260507060841 | 35 | 110 | 19.0 | 19.0 | 0.00 | 0.00 | 0.00 | 85 | 1354.3 |
| 20260507060337 | 35 | 68 | 2.0 | 18.0 | 0.00 | 0.00 | 0.00 | 85 | 1354.1 |
| 20260507055834 | 35 | 62 | 6.0 | 14.0 | 0.00 | 0.01 | 0.01 | 85 | 1353.9 |
| 20260507055329 | 35 | 86 | 4.0 | 16.0 | 0.00 | 0.01 | 0.01 | 84 | 1353.9 |
| 20260507054826 | 35 | 115 | 15.0 | 16.0 | 0.00 | 0.01 | 0.01 | 84 | 1353.9 |
| 20260507054322 | 35 | 96 | 9.0 | 19.0 | 0.00 | 0.01 | 0.01 | 84 | 1354.1 |
| 20260507053820 | 35 | 98 | 8.0 | 20.0 | 0.00 | 0.01 | 0.01 | 84 | 1353.9 |
| 20260507053317 | 35 | 132 | 13.0 | 16.0 | 0.00 | 0.01 | 0.01 | 83 | 1353.6 |
| 20260507052816 | 35 | 145 | 9.0 | 19.0 | 0.00 | 0.01 | 0.01 | 82 | 1353.9 |
| 20260507052312 | 35 | 130 | 8.0 | 14.0 | 0.00 | 0.01 | 0.01 | 82 | 1353.8 |
| 20260507051810 | 35 | 65 | 13.0 | 15.0 | 0.00 | 0.01 | 0.01 | 82 | 1353.8 |
| 20260507051308 | 35 | 133 | 11.0 | 18.0 | 0.00 | 0.01 | 0.01 | 81 | 1353.6 |
| 20260507050804 | 36 | 123 | 8.0 | 19.0 | 0.00 | 0.01 | 0.01 | 80 | 1353.8 |
| 20260507050300 | 37 | 170 | 7.0 | 17.0 | 0.00 | 0.01 | 0.01 | 75 | 1353.6 |
| 20260507045757 | 36 | 150 | 0.0 | 16.0 | 0.00 | 0.01 | 0.01 | 76 | 1353.6 |
| 20260507045254 | 38 | 131 | 6.0 | 17.0 | 0.00 | 0.01 | 0.01 | 70 | 1353.3 |
| 20260507044751 | 38 | 119 | 3.0 | 13.0 | 0.00 | 0.01 | 0.01 | 69 | 1353.7 |
| 20260507044247 | 37 | 105 | 3.0 | 3.0 | 0.00 | 0.01 | 0.01 | 59 | 1353.4 |
| 20260507043744 | 37 | 98 | 2.0 | 3.0 | 0.00 | 0.01 | 0.01 | 58 | 1353.6 |
| 20260507043240 | 38 | 45 | 3.0 | 3.0 | 0.00 | 0.01 | 0.01 | 58 | 1353.1 |
| 20260507042737 | 40 | 112 | 3.0 | 4.0 | 0.00 | 0.01 | 0.01 | 53 | 1353.2 |
| 20260507042232 | 40 | 143 | 3.0 | 4.0 | 0.00 | 0.01 | 0.01 | 53 | 1352.9 |
| 20260507041730 | 40 | 115 | 2.0 | 4.0 | 0.00 | 0.01 | 0.01 | 53 | 1353.2 |
| 20260507041226 | 41 | 108 | 3.0 | 4.0 | 0.00 | 0.01 | 0.01 | 51 | 1353.1 |
| 20260507040723 | 42 | 121 | 3.0 | 4.0 | 0.00 | 0.01 | 0.01 | 50 | 1352.8 |
| 20260507040219 | 42 | 170 | 2.0 | 7.0 | 0.00 | 0.01 | 0.01 | 48 | 1352.9 |
| 20260507035715 | 41 | 140 | 4.0 | 5.0 | 0.00 | 0.01 | 0.01 | 49 | 1352.9 |
| 20260507035211 | 41 | 180 | 1.0 | 4.0 | 0.00 | 0.01 | 0.01 | 51 | 1353.1 |
| 20260507034708 | 41 | 144 | 4.0 | 5.0 | 0.00 | 0.01 | 0.01 | 50 | 1353.1 |
| 20260507034206 | 40 | 114 | 3.0 | 4.0 | 0.00 | 0.01 | 0.01 | 51 | 1352.4 |
| 20260507033704 | 40 | 109 | 2.0 | 4.0 | 0.00 | 0.01 | 0.01 | 51 | 1352.4 |
| 20260507033201 | 41 | 108 | 3.0 | 4.0 | 0.00 | 0.01 | 0.01 | 50 | 1352.1 |
| 20260507032658 | 41 | 105 | 3.0 | 5.0 | 0.00 | 0.01 | 0.01 | 49 | 1352.4 |
| 20260507032154 | 44 | 90 | 2.0 | 3.0 | 0.00 | 0.01 | 0.01 | 45 | 1352.4 |
| 20260507031651 | 44 | 235 | 5.0 | 7.0 | 0.00 | 0.01 | 0.01 | 45 | 1352.1 |
| 20260507031147 | 44 | 235 | 2.0 | 4.0 | 0.00 | 0.01 | 0.01 | 45 | 1352.3 |
| 20260507030644 | 45 | 187 | 0.0 | 6.0 | 0.00 | 0.01 | 0.01 | 43 | 1352.1 |
| 20260507030142 | 45 | 111 | 0.0 | 8.0 | 0.00 | 0.01 | 0.01 | 42 | 1351.9 |
| 20260507025639 | 45 | 262 | 5.0 | 7.0 | 0.00 | 0.01 | 0.01 | 43 | 1351.7 |
| 20260507025136 | 46 | 180 | 2.0 | 9.0 | 0.00 | 0.01 | 0.01 | 42 | 1351.4 |
| 20260507024634 | 46 | 285 | 4.0 | 13.0 | 0.00 | 0.01 | 0.01 | 42 | 1351.3 |
| 20260507024131 | 46 | 183 | 5.0 | 11.0 | 0.00 | 0.01 | 0.01 | 41 | 1351.3 |
| 20260507023626 | 46 | 256 | 5.0 | 11.0 | 0.00 | 0.01 | 0.01 | 41 | 1351.3 |
| 20260507023124 | 47 | 243 | 18.0 | 19.0 | 0.00 | 0.01 | 0.01 | 40 | 1351.1 |
| 20260507022621 | 47 | 256 | 16.0 | 19.0 | 0.00 | 0.01 | 0.01 | 40 | 1351.1 |
| 20260507022116 | 47 | 220 | 13.0 | 19.0 | 0.00 | 0.01 | 0.01 | 40 | 1351.1 |
| 20260507021613 | 48 | 191 | 6.0 | 21.0 | 0.00 | 0.01 | 0.01 | 40 | 1350.7 |
| 20260507021109 | 48 | 237 | 11.0 | 18.0 | 0.00 | 0.01 | 0.01 | 40 | 1350.9 |
| 20260507020607 | 48 | 251 | 8.0 | 17.0 | 0.00 | 0.01 | 0.01 | 41 | 1350.8 |
| 20260507015602 | 48 | 263 | 9.0 | 18.0 | 0.00 | 0.01 | 0.01 | 41 | 1350.6 |
| 20260507015059 | 48 | 249 | 3.0 | 10.0 | 0.00 | 0.01 | 0.01 | 41 | 1350.6 |
| 20260507014555 | 48 | 249 | 5.0 | 12.0 | 0.00 | 0.01 | 0.01 | 40 | 1350.6 |
| 20260507014051 | 48 | 287 | 5.0 | 13.0 | 0.00 | 0.01 | 0.01 | 42 | 1350.7 |
| 20260507013548 | 48 | 281 | 7.0 | 16.0 | 0.00 | 0.01 | 0.01 | 44 | 1350.8 |
| 20260507013045 | 47 | 247 | 5.0 | 8.0 | 0.00 | 0.01 | 0.01 | 45 | 1350.8 |
| 20260507012542 | 47 | 176 | 6.0 | 24.0 | 0.00 | 0.01 | 0.01 | 48 | 1350.9 |
| 20260507012038 | 46 | 211 | 3.0 | 20.0 | 0.00 | 0.01 | 0.01 | 52 | 1350.4 |
| 20260507011536 | 46 | 221 | 13.0 | 15.0 | 0.00 | 0.01 | 0.01 | 55 | 1350.3 |
| 20260507011032 | 46 | 106 | 0.0 | 2.0 | 0.00 | 0.01 | 0.01 | 61 | 1350.0 |
| 20260507010526 | 47 | 194 | 1.0 | 5.0 | 0.00 | 0.01 | 0.01 | 58 | 1349.9 |
| 20260507010023 | 47 | 210 | 0.0 | 4.0 | 0.00 | 0.01 | 0.01 | 57 | 1349.4 |
| 20260507005521 | 47 | 218 | 4.0 | 7.0 | 0.00 | 0.01 | 0.01 | 52 | 1349.5 |
| 20260507005017 | 47 | 172 | 4.0 | 11.0 | 0.00 | 0.01 | 0.01 | 52 | 1349.5 |
| 20260507004514 | 48 | 217 | 4.0 | 11.0 | 0.00 | 0.01 | 0.01 | 51 | 1349.3 |
| 20260507004012 | 48 | 199 | 4.0 | 16.0 | 0.00 | 0.01 | 0.01 | 52 | 1349.7 |
| 20260507003507 | 47 | 206 | 8.0 | 15.0 | 0.00 | 0.01 | 0.01 | 52 | 1349.5 |
| 20260507003002 | 47 | 209 | 5.0 | 12.0 | 0.00 | 0.01 | 0.01 | 52 | 1349.4 |
| 20260507002459 | 47 | 161 | 5.0 | 14.0 | 0.00 | 0.01 | 0.01 | 53 | 1349.3 |
| 20260507001955 | 47 | 218 | 5.0 | 9.0 | 0.00 | 0.01 | 0.01 | 53 | 1349.3 |
| 20260507001452 | 47 | 172 | 8.0 | 12.0 | 0.00 | 0.01 | 0.01 | 54 | 1349.4 |
| 20260507000949 | 47 | 221 | 5.0 | 10.0 | 0.00 | 0.01 | 0.01 | 56 | 1349.3 |
| 20260507000445 | 47 | 226 | 6.0 | 13.0 | 0.00 | 0.01 | 0.01 | 55 | 1349.3 |
| 20260506235940 | 47 | 229 | 6.0 | 14.0 | 0.00 | 0.01 | 0.01 | 58 | 1349.4 |
| 20260506235438 | 46 | 270 | 1.0 | 14.0 | 0.00 | 0.01 | 0.01 | 65 | 1349.3 |
| 20260506234933 | 44 | 191 | 16.0 | 31.0 | 0.00 | 0.01 | 0.01 | 66 | 1349.9 |
| 20260506234432 | 46 | 253 | 16.0 | 30.0 | 0.00 | 0.01 | 0.01 | 58 | 1350.0 |
| 20260506233929 | 48 | 288 | 8.0 | 29.0 | 0.00 | 0.01 | 0.01 | 47 | 1349.8 |
| 20260506233425 | 50 | 312 | 14.0 | 29.0 | 0.00 | 0.01 | 0.01 | 43 | 1349.3 |
| 20260506232922 | 51 | 270 | 14.0 | 24.0 | 0.00 | 0.01 | 0.01 | 42 | 1348.9 |
| 20260506232418 | 51 | 249 | 12.0 | 20.0 | 0.00 | 0.01 | 0.01 | 42 | 1348.9 |
| 20260506231914 | 51 | 178 | 6.0 | 16.0 | 0.00 | 0.01 | 0.01 | 43 | 1348.7 |
| 20260506231412 | 51 | 299 | 7.0 | 22.0 | 0.00 | 0.01 | 0.01 | 43 | 1348.5 |
| 20260506230909 | 53 | 225 | 14.0 | 22.0 | 0.00 | 0.01 | 0.01 | 41 | 1348.9 |